Cleveland, OH

4:27 AM EST on January 22, 2018 (GMT -0500)
Cleveland-Hopkins International

Weather History for KCLE - January, 2013

Change the Weather History Date:

Wednesday, January 16, 2013

  Actual Average Record
Temperature  
Mean Temperature 32 °F 28 °F  
Max Temperature 35 °F 34 °F 57 °F (1949)
Min Temperature 29 °F 21 °F -15 °F (1977)
Degree Days  
Heating Degree Days 33 37  
Month to date heating degree days 503 591  
Since 1 July heating degree days 2584 2698  
Cooling Degree Days 0 0  
Month to date cooling degree days 0 0  
Year to date cooling degree days 0 0  
Moisture  
Dew Point 23 °F    
Average Humidity 70    
Maximum Humidity 78    
Minimum Humidity 61    
Precipitation  
Precipitation T in 0.09 in 0.50 in (2005)
Month to date precipitation 0.93 1.50  
Year to date precipitation 0.93 1.50  
Snow  
Snow T in 0.60 in - ()
Month to date snowfall T 9.5  
Since 1 July snowfall 15.5 28.1  
Snow Depth 0.00 in    
Sea Level Pressure  
Sea Level Pressure 30.00 in    
Wind  
Wind Speed 9 mph (SW)    
Max Wind Speed 21 mph    
Max Gust Speed 26 mph    
Visibility 10 miles    
Events      
T = Trace of Precipitation, MM = Missing Value Source: NWS Daily Summary

Daily Weather History Graph

Daily Weather History Graph

Search for Another Location

Airport or City:

Trip Planner

Search our weather history database for the weather conditions in past years. The results will help you decide how hot, cold, wet, or windy it might be!

Date:

Astronomy

Jan. 16, 2013 Rise Set
Actual Time 7:50 AM EST 5:24 PM EST
Civil Twilight 7:20 AM EST 5:54 PM EST
Nautical Twilight 6:46 AM EST 6:28 PM EST
Astronomical Twilight 6:13 AM EST 7:01 PM EST
Moon 10:22 AM EST (1/16) 11:19 PM EST (1/16)
Length of Visible Light 10h 34m
Length of Day
9h 33m
Waxing Crescent, 28% of the Moon is Illuminated
Jan 16
Waxing Crescent
Jan 18
First Quarter
Jan 26
Full
Feb 3
Last Quarter
Feb 10
New

Hourly Weather History & Observations

Time (EST) Temp. Windchill Dew Point Humidity Pressure Visibility Wind Dir Wind Speed Gust Speed Precip Events Conditions
12:51 AM 30.0 °F 24.1 °F 21.9 °F 72% 30.12 in 10.0 mi NE 5.8 mph - N/A   Overcast
1:51 AM 30.0 °F 25.2 °F 21.9 °F 72% 30.10 in 9.0 mi NE 4.6 mph - 0.00 in   Overcast
2:51 AM 30.0 °F 26.5 °F 21.9 °F 72% 30.09 in 10.0 mi NE 3.5 mph - N/A   Overcast
3:51 AM 30.0 °F - 21.9 °F 72% 30.08 in 10.0 mi Calm Calm - N/A   Overcast
4:51 AM 30.0 °F 26.5 °F 21.9 °F 72% 30.03 in 10.0 mi North 3.5 mph - N/A   Overcast
5:51 AM 30.0 °F - 21.9 °F 72% 30.02 in 10.0 mi Calm Calm - N/A   Overcast
6:51 AM 30.0 °F 26.5 °F 21.9 °F 72% 30.01 in 10.0 mi NNE 3.5 mph - N/A   Overcast
7:51 AM 28.9 °F 25.2 °F 23.0 °F 78% 29.99 in 10.0 mi SSE 3.5 mph - N/A   Overcast
8:51 AM 30.0 °F 24.1 °F 23.0 °F 75% 29.99 in 10.0 mi South 5.8 mph - N/A   Overcast
9:51 AM 30.0 °F 22.4 °F 23.0 °F 75% 29.98 in 10.0 mi South 8.1 mph - N/A   Mostly Cloudy
10:51 AM 30.9 °F 22.8 °F 23.0 °F 72% 29.99 in 10.0 mi SSW 9.2 mph - N/A   Mostly Cloudy
11:51 AM 32.0 °F 23.0 °F 24.1 °F 73% 29.97 in 10.0 mi SW 11.5 mph - N/A   Mostly Cloudy
12:51 PM 33.1 °F 24.4 °F 24.1 °F 70% 29.95 in 10.0 mi West 11.5 mph - N/A   Scattered Clouds
1:51 PM 35.1 °F 26.4 °F 24.1 °F 64% 29.93 in 10.0 mi WSW 12.7 mph - N/A   Scattered Clouds
2:51 PM 34.0 °F 24.6 °F 25.0 °F 70% 29.92 in 10.0 mi SSW 13.8 mph - N/A   Mostly Cloudy
3:51 PM 34.0 °F 25.5 °F 24.1 °F 67% 29.91 in 10.0 mi SW 11.5 mph - N/A   Mostly Cloudy
4:51 PM 33.1 °F 23.9 °F 23.0 °F 66% 29.94 in 10.0 mi SSW 12.7 mph - N/A   Overcast
5:51 PM 32.0 °F 23.6 °F 21.9 °F 66% 29.95 in 10.0 mi SW 10.4 mph - N/A   Mostly Cloudy
6:51 PM 33.1 °F 23.9 °F 21.9 °F 64% 29.98 in 10.0 mi SSW 12.7 mph - N/A   Mostly Cloudy
7:51 PM 33.1 °F 23.9 °F 21.0 °F 61% 29.96 in 10.0 mi SSW 12.7 mph - N/A   Mostly Cloudy
8:51 PM 33.1 °F 23.4 °F 21.9 °F 64% 29.98 in 10.0 mi SW 13.8 mph 24.2 mph N/A   Mostly Cloudy
9:51 PM 33.1 °F 23.4 °F 21.9 °F 64% 30.00 in 10.0 mi SW 13.8 mph - N/A   Overcast
10:51 PM 34.0 °F 24.2 °F 21.9 °F 61% 30.01 in 10.0 mi SW 15.0 mph 25.3 mph N/A   Overcast
11:51 PM 33.1 °F 23.9 °F 21.9 °F 64% 30.02 in 10.0 mi WSW 12.7 mph - N/A   Overcast